Wetterdaten: Freitag, 13.11.2015
Datum Zeit Auen-Temp. Temp gefhlt Luftfeuchte Luftdruck Regen Wind Richtung Richtung Taupunkt Windben
13.11.2015 00:00 0,1 C -0,2 C 90 % 1023,7 hPa 0,0 mm 0,0 km/h (0 Bft) S-SO 157 -1,3 C 0,0 km/h (0 Bft)
13.11.2015 00:05 -0,1 C -0,3 C 90 % 1023,7 hPa 0,0 mm 0,0 km/h (0 Bft) S-SO 157 -1,5 C 0,0 km/h (0 Bft)
13.11.2015 00:10 -0,1 C -0,3 C 90 % 1023,8 hPa 0,0 mm 0,0 km/h (0 Bft) S-SO 157 -1,5 C 0,0 km/h (0 Bft)
13.11.2015 00:15 -0,1 C -0,3 C 90 % 1023,8 hPa 0,0 mm 0,0 km/h (0 Bft) S-SO 157 -1,5 C 0,0 km/h (0 Bft)
13.11.2015 00:20 0,4 C 0,0 C 90 % 1023,8 hPa 0,0 mm 0,0 km/h (0 Bft) S-SO 157 -1,0 C 0,0 km/h (0 Bft)
13.11.2015 00:25 0,3 C 0,0 C 90 % 1023,8 hPa 0,0 mm 0,0 km/h (0 Bft) S-SO 157 -1,1 C 0,0 km/h (0 Bft)
13.11.2015 00:30 0,5 C 0,1 C 91 % 1023,8 hPa 0,0 mm 0,0 km/h (0 Bft) S-SO 157 -0,8 C 0,0 km/h (0 Bft)
13.11.2015 00:35 0,6 C 0,2 C 91 % 1023,8 hPa 0,0 mm 0,0 km/h (0 Bft) S-SO 157 -0,7 C 0,0 km/h (0 Bft)
13.11.2015 00:40 0,5 C 0,1 C 91 % 1023,8 hPa 0,0 mm 0,0 km/h (0 Bft) S-SO 157 -0,8 C 0,0 km/h (0 Bft)
13.11.2015 00:45 0,5 C 0,1 C 91 % 1023,8 hPa 0,0 mm 0,0 km/h (0 Bft) S-SO 157 -0,8 C 0,0 km/h (0 Bft)
13.11.2015 00:50 0,4 C 0,0 C 91 % 1023,6 hPa 0,0 mm 0,0 km/h (0 Bft) S-SO 157 -0,9 C 0,0 km/h (0 Bft)
13.11.2015 00:55 0,3 C 0,0 C 91 % 1023,6 hPa 0,0 mm 0,0 km/h (0 Bft) S-SO 157 -1,0 C 0,0 km/h (0 Bft)
13.11.2015 01:00 0,4 C 0,0 C 91 % 1023,6 hPa 0,0 mm 0,0 km/h (0 Bft) S-SO 157 -0,9 C 0,0 km/h (0 Bft)
13.11.2015 01:05 0,8 C 0,5 C 86 % 1023,6 hPa 0,0 mm 0,0 km/h (0 Bft) S-SO 157 -1,3 C 0,0 km/h (0 Bft)
13.11.2015 01:10 0,8 C 0,3 C 92 % 1023,5 hPa 0,0 mm 0,0 km/h (0 Bft) S-SO 157 -0,3 C 0,0 km/h (0 Bft)
13.11.2015 01:15 0,6 C 0,3 C 86 % 1023,5 hPa 0,0 mm 0,0 km/h (0 Bft) S-SO 157 -1,5 C 0,0 km/h (0 Bft)
13.11.2015 01:20 0,8 C 0,4 C 86 % 1023,5 hPa 0,0 mm 0,0 km/h (0 Bft) S-SO 157 -1,3 C 0,0 km/h (0 Bft)
13.11.2015 01:25 0,7 C 0,2 C 92 % 1023,5 hPa 0,0 mm 0,0 km/h (0 Bft) S-SO 157 -0,4 C 0,0 km/h (0 Bft)
13.11.2015 01:30 0,6 C 0,2 C 92 % 1023,5 hPa 0,0 mm 0,0 km/h (0 Bft) S-SO 157 -0,5 C 0,0 km/h (0 Bft)
13.11.2015 01:35 0,7 C 0,2 C 92 % 1023,5 hPa 0,0 mm 0,0 km/h (0 Bft) S-SO 157 -0,4 C 0,0 km/h (0 Bft)
13.11.2015 01:40 0,7 C 0,2 C 92 % 1023,5 hPa 0,0 mm 0,0 km/h (0 Bft) S-SO 157 -0,4 C 0,0 km/h (0 Bft)
13.11.2015 01:45 0,7 C 0,2 C 92 % 1023,5 hPa 0,0 mm 0,0 km/h (0 Bft) S-SO 157 -0,4 C 0,0 km/h (0 Bft)
13.11.2015 01:50 0,5 C 0,1 C 92 % 1023,5 hPa 0,0 mm 0,0 km/h (0 Bft) S-SO 157 -0,6 C 0,0 km/h (0 Bft)
13.11.2015 01:55 0,2 C -0,1 C 92 % 1023,5 hPa 0,0 mm 0,0 km/h (0 Bft) S-SO 157 -0,9 C 0,0 km/h (0 Bft)
13.11.2015 02:00 0,3 C 0,0 C 92 % 1023,5 hPa 0,0 mm 0,0 km/h (0 Bft) S-SO 157 -0,8 C 0,0 km/h (0 Bft)
13.11.2015 02:05 0,6 C 0,2 C 92 % 1023,5 hPa 0,0 mm 0,0 km/h (0 Bft) S-SO 157 -0,5 C 0,0 km/h (0 Bft)
13.11.2015 02:10 0,3 C 0,0 C 92 % 1023,6 hPa 0,0 mm 0,0 km/h (0 Bft) S-SO 157 -0,8 C 0,0 km/h (0 Bft)
13.11.2015 02:15 0,3 C 0,0 C 92 % 1023,6 hPa 0,0 mm 0,0 km/h (0 Bft) S-SO 157 -0,8 C 0,0 km/h (0 Bft)
13.11.2015 02:20 0,5 C 0,1 C 92 % 1023,6 hPa 0,0 mm 0,0 km/h (0 Bft) S-SO 157 -0,6 C 0,0 km/h (0 Bft)
13.11.2015 02:25 0,4 C 0,0 C 92 % 1023,6 hPa 0,0 mm 0,0 km/h (0 Bft) S-SO 157 -0,7 C 0,0 km/h (0 Bft)
13.11.2015 02:30 0,4 C 0,0 C 92 % 1023,6 hPa 0,0 mm 0,0 km/h (0 Bft) S-SO 157 -0,7 C 0,0 km/h (0 Bft)
13.11.2015 02:35 0,4 C 0,0 C 92 % 1023,6 hPa 0,0 mm 0,0 km/h (0 Bft) S-SO 157 -0,7 C 0,0 km/h (0 Bft)
13.11.2015 02:40 0,6 C 0,2 C 86 % 1023,6 hPa 0,0 mm 0,0 km/h (0 Bft) S-SO 157 -1,5 C 0,0 km/h (0 Bft)
13.11.2015 02:43 0,5 C 0,3 C 92 % 1023,6 hPa 0,0 mm 0,0 km/h (0 Bft) S-SO 157 -0,6 C 0,0 km/h (0 Bft)
13.11.2015 02:46 0,5 C 0,3 C 92 % 1023,6 hPa 0,0 mm 0,0 km/h (0 Bft) S-SO 157 -0,6 C 0,0 km/h (0 Bft)
13.11.2015 02:50 0,5 C 0,3 C 92 % 1023,6 hPa 0,0 mm 0,0 km/h (0 Bft) S-SO 157 -0,6 C 0,0 km/h (0 Bft)
13.11.2015 02:55 0,3 C 0,2 C 92 % 1023,6 hPa 0,0 mm 0,0 km/h (0 Bft) S-SO 157 -0,8 C 0,0 km/h (0 Bft)
13.11.2015 03:00 0,2 C 0,1 C 92 % 1023,6 hPa 0,0 mm 0,0 km/h (0 Bft) S-SO 157 -0,9 C 0,0 km/h (0 Bft)
13.11.2015 03:05 0,1 C 0,1 C 91 % 1023,6 hPa 0,0 mm 0,0 km/h (0 Bft) S-SO 157 -1,2 C 0,0 km/h (0 Bft)
13.11.2015 03:10 0,1 C 0,1 C 91 % 1023,5 hPa 0,0 mm 0,0 km/h (0 Bft) S-SO 157 -1,2 C 0,0 km/h (0 Bft)
13.11.2015 03:15 0,2 C 0,1 C 91 % 1023,5 hPa 0,0 mm 0,0 km/h (0 Bft) S-SO 157 -1,1 C 0,0 km/h (0 Bft)
13.11.2015 03:20 0,3 C 0,3 C 86 % 1023,5 hPa 0,0 mm 0,0 km/h (0 Bft) S-SO 157 -1,8 C 0,0 km/h (0 Bft)
13.11.2015 03:25 0,4 C 0,3 C 86 % 1023,5 hPa 0,0 mm 0,0 km/h (0 Bft) S-SO 157 -1,7 C 0,0 km/h (0 Bft)
13.11.2015 03:30 0,5 C 0,3 C 92 % 1023,2 hPa 0,0 mm 0,0 km/h (0 Bft) S-SO 157 -0,6 C 0,0 km/h (0 Bft)
13.11.2015 03:35 0,5 C 0,5 C 86 % 1023,2 hPa 0,0 mm 0,0 km/h (0 Bft) S-SO 157 -1,6 C 0,0 km/h (0 Bft)
13.11.2015 03:40 0,5 C 0,4 C 86 % 1023,2 hPa 0,0 mm 0,0 km/h (0 Bft) S-SO 157 -1,6 C 0,0 km/h (0 Bft)
13.11.2015 03:45 0,7 C 0,5 C 92 % 1023,2 hPa 0,0 mm 0,0 km/h (0 Bft) S-SO 157 -0,4 C 0,0 km/h (0 Bft)
13.11.2015 03:50 0,4 C 0,3 C 92 % 1023,6 hPa 0,0 mm 0,0 km/h (0 Bft) S-SO 157 -0,7 C 0,0 km/h (0 Bft)
13.11.2015 03:55 0,8 C 0,6 C 86 % 1023,6 hPa 0,0 mm 0,0 km/h (0 Bft) S-SO 157 -1,3 C 0,0 km/h (0 Bft)
13.11.2015 04:00 1,4 C 1,1 C 86 % 1023,6 hPa 0,0 mm 0,0 km/h (0 Bft) S-SO 157 -0,7 C 0,0 km/h (0 Bft)
13.11.2015 04:05 1,1 C 0,7 C 92 % 1023,6 hPa 0,0 mm 0,0 km/h (0 Bft) S-SO 157 -0,1 C 0,0 km/h (0 Bft)
13.11.2015 04:10 1,9 C 1,6 C 87 % 1023,5 hPa 0,0 mm 0,0 km/h (0 Bft) S-SO 157 -0,0 C 0,0 km/h (0 Bft)
13.11.2015 04:15 1,8 C 1,2 C 91 % 1023,5 hPa 0,0 mm 0,0 km/h (0 Bft) S-SO 157 0,5 C 0,0 km/h (0 Bft)
13.11.2015 04:20 1,6 C 1,2 C 86 % 1023,5 hPa 0,0 mm 0,0 km/h (0 Bft) S-SO 157 -0,5 C 0,0 km/h (0 Bft)
13.11.2015 04:25 1,5 C 1,0 C 91 % 1023,5 hPa 0,0 mm 0,0 km/h (0 Bft) S-SO 157 0,2 C 0,0 km/h (0 Bft)
13.11.2015 04:30 1,3 C 0,9 C 90 % 1023,7 hPa 0,0 mm 0,0 km/h (0 Bft) S-SO 157 -0,2 C 0,0 km/h (0 Bft)
13.11.2015 04:35 1,1 C 0,7 C 89 % 1023,7 hPa 0,0 mm 0,0 km/h (0 Bft) S-SO 157 -0,5 C 0,0 km/h (0 Bft)
13.11.2015 04:40 0,8 C 0,5 C 89 % 1023,7 hPa 0,0 mm 0,0 km/h (0 Bft) S-SO 157 -0,8 C 0,0 km/h (0 Bft)
13.11.2015 04:45 0,8 C 0,5 C 89 % 1023,7 hPa 0,0 mm 0,0 km/h (0 Bft) S-SO 157 -0,8 C 0,0 km/h (0 Bft)
13.11.2015 04:50 0,8 C 0,5 C 89 % 1023,7 hPa 0,0 mm 0,0 km/h (0 Bft) S-SO 157 -0,8 C 0,0 km/h (0 Bft)
13.11.2015 04:55 0,8 C 0,5 C 89 % 1023,7 hPa 0,0 mm 0,0 km/h (0 Bft) S-SO 157 -0,8 C 0,0 km/h (0 Bft)
13.11.2015 05:00 0,7 C 0,5 C 89 % 1023,7 hPa 0,0 mm 0,0 km/h (0 Bft) S-SO 157 -0,9 C 0,0 km/h (0 Bft)
13.11.2015 05:05 0,7 C 0,5 C 89 % 1023,7 hPa 0,0 mm 0,0 km/h (0 Bft) S-SO 157 -0,9 C 0,0 km/h (0 Bft)
13.11.2015 05:10 0,7 C 0,5 C 89 % 1023,6 hPa 0,0 mm 0,0 km/h (0 Bft) S-SO 157 -0,9 C 0,0 km/h (0 Bft)
13.11.2015 05:15 1,0 C 0,9 C 85 % 1023,6 hPa 0,0 mm 0,0 km/h (0 Bft) S-SO 157 -1,2 C 0,0 km/h (0 Bft)
13.11.2015 05:20 0,9 C 0,6 C 89 % 1023,6 hPa 0,0 mm 0,0 km/h (0 Bft) S-SO 157 -0,7 C 0,0 km/h (0 Bft)
13.11.2015 05:25 1,0 C 0,7 C 89 % 1023,6 hPa 0,0 mm 0,0 km/h (0 Bft) S-SO 157 -0,6 C 0,0 km/h (0 Bft)
13.11.2015 05:30 1,1 C 0,7 C 89 % 1023,9 hPa 0,0 mm 0,0 km/h (0 Bft) S-SO 157 -0,5 C 0,0 km/h (0 Bft)
13.11.2015 05:35 1,1 C 0,7 C 89 % 1023,9 hPa 0,0 mm 0,0 km/h (0 Bft) S-SO 157 -0,5 C 0,0 km/h (0 Bft)
13.11.2015 05:40 1,2 C 0,9 C 85 % 1023,9 hPa 0,0 mm 0,0 km/h (0 Bft) S-SO 157 -1,0 C 0,0 km/h (0 Bft)
13.11.2015 05:45 1,1 C 0,7 C 89 % 1023,9 hPa 0,0 mm 0,0 km/h (0 Bft) S-SO 157 -0,5 C 0,0 km/h (0 Bft)
13.11.2015 05:50 1,4 C 0,9 C 89 % 1023,8 hPa 0,0 mm 0,0 km/h (0 Bft) S-SO 157 -0,2 C 0,0 km/h (0 Bft)
13.11.2015 05:55 1,3 C 0,9 C 89 % 1023,8 hPa 0,0 mm 0,0 km/h (0 Bft) S-SO 157 -0,3 C 0,0 km/h (0 Bft)
13.11.2015 06:00 1,4 C 0,9 C 89 % 1023,8 hPa 0,0 mm 0,0 km/h (0 Bft) S-SO 157 -0,2 C 0,0 km/h (0 Bft)
13.11.2015 06:05 1,5 C 1,1 C 85 % 1023,8 hPa 0,0 mm 0,0 km/h (0 Bft) S-SO 157 -0,7 C 0,0 km/h (0 Bft)
13.11.2015 06:10 1,6 C 1,3 C 85 % 1023,9 hPa 0,0 mm 0,0 km/h (0 Bft) S-SO 157 -0,6 C 0,0 km/h (0 Bft)
13.11.2015 06:15 1,6 C 1,1 C 85 % 1023,9 hPa 0,0 mm 0,0 km/h (0 Bft) S-SO 157 -0,6 C 0,0 km/h (0 Bft)
13.11.2015 06:20 1,6 C 1,1 C 85 % 1023,9 hPa 0,0 mm 0,0 km/h (0 Bft) S-SO 157 -0,6 C 0,0 km/h (0 Bft)
13.11.2015 06:25 1,6 C 1,1 C 85 % 1023,9 hPa 0,0 mm 0,0 km/h (0 Bft) S-SO 157 -0,6 C 0,0 km/h (0 Bft)
13.11.2015 06:30 1,6 C 1,2 C 85 % 1024,2 hPa 0,0 mm 0,0 km/h (0 Bft) S-SO 157 -0,6 C 0,0 km/h (0 Bft)
13.11.2015 06:35 1,7 C 1,1 C 89 % 1024,2 hPa 0,0 mm 0,0 km/h (0 Bft) S-SO 157 0,1 C 0,0 km/h (0 Bft)
13.11.2015 06:40 2,2 C 1,5 C 85 % 1024,2 hPa 0,0 mm 0,0 km/h (0 Bft) S-SO 157 -0,1 C 0,0 km/h (0 Bft)
13.11.2015 06:45 2,3 C 1,7 C 84 % 1024,2 hPa 0,0 mm 0,0 km/h (0 Bft) S-SO 157 -0,1 C 0,0 km/h (0 Bft)
13.11.2015 06:50 2,3 C 1,7 C 84 % 1024,2 hPa 0,0 mm 0,0 km/h (0 Bft) S-SO 157 -0,1 C 0,0 km/h (0 Bft)
13.11.2015 06:55 3,3 C 2,5 C 83 % 1024,2 hPa 0,0 mm 0,0 km/h (0 Bft) S-SO 157 0,7 C 0,0 km/h (0 Bft)
13.11.2015 07:00 3,9 C 2,9 C 82 % 1024,2 hPa 0,0 mm 0,0 km/h (0 Bft) S-SO 157 1,1 C 0,0 km/h (0 Bft)
13.11.2015 07:05 4,3 C 3,1 C 81 % 1024,2 hPa 0,0 mm 0,0 km/h (0 Bft) S-SO 157 1,3 C 0,0 km/h (0 Bft)
13.11.2015 07:10 4,5 C 3,2 C 79 % 1024,3 hPa 0,0 mm 0,0 km/h (0 Bft) S-SO 157 1,2 C 0,0 km/h (0 Bft)
13.11.2015 07:15 4,8 C 3,2 C 77 % 1024,3 hPa 0,0 mm 0,0 km/h (0 Bft) S-SO 157 1,1 C 0,0 km/h (0 Bft)
13.11.2015 07:20 4,6 C 3,2 C 76 % 1024,3 hPa 0,0 mm 0,0 km/h (0 Bft) S-SO 157 0,7 C 0,0 km/h (0 Bft)
13.11.2015 07:25 4,6 C 3,2 C 75 % 1024,3 hPa 0,0 mm 0,0 km/h (0 Bft) S-SO 157 0,6 C 0,0 km/h (0 Bft)
13.11.2015 07:30 4,9 C 3,3 C 74 % 1024,3 hPa 0,0 mm 0,0 km/h (0 Bft) S-SO 157 0,7 C 0,0 km/h (0 Bft)
13.11.2015 07:35 4,9 C 3,3 C 73 % 1024,3 hPa 0,0 mm 0,0 km/h (0 Bft) S-SO 157 0,5 C 0,0 km/h (0 Bft)
13.11.2015 07:40 4,9 C 3,3 C 72 % 1024,3 hPa 0,0 mm 0,0 km/h (0 Bft) S-SO 157 0,3 C 0,0 km/h (0 Bft)
13.11.2015 07:45 4,9 C 3,4 C 71 % 1024,3 hPa 0,0 mm 0,0 km/h (0 Bft) S-SO 157 0,1 C 0,0 km/h (0 Bft)
13.11.2015 07:50 4,9 C 6,1 C 71 % 1024,6 hPa 0,0 mm 5,2 km/h (1 Bft) S-SO 157 0,1 C 4,4 km/h (1 Bft)
13.11.2015 07:55 4,6 C 5,9 C 71 % 1024,6 hPa 0,0 mm 4,4 km/h (1 Bft) SO 135 -0,2 C 3,9 km/h (1 Bft)
13.11.2015 08:00 4,5 C 6,0 C 71 % 1024,6 hPa 0,0 mm 4,1 km/h (1 Bft) S 180 -0,3 C 6,0 km/h (2 Bft)
13.11.2015 08:05 4,2 C 6,0 C 71 % 1024,6 hPa 0,0 mm 3,6 km/h (1 Bft) S 180 -0,6 C 7,8 km/h (2 Bft)
13.11.2015 08:10 4,0 C 5,8 C 72 % 1024,9 hPa 0,0 mm 3,1 km/h (1 Bft) S-SO 157 -0,6 C 6,2 km/h (2 Bft)
13.11.2015 08:15 4,0 C 5,6 C 73 % 1024,9 hPa 0,0 mm 2,8 km/h (1 Bft) S-SO 157 -0,4 C 4,1 km/h (1 Bft)
13.11.2015 08:20 3,9 C 5,5 C 73 % 1024,9 hPa 0,0 mm 2,8 km/h (1 Bft) S-SO 157 -0,5 C 8,5 km/h (2 Bft)
13.11.2015 08:25 3,4 C 5,5 C 74 % 1024,9 hPa 0,0 mm 2,1 km/h (1 Bft) S-SO 157 -0,8 C 0,0 km/h (0 Bft)
13.11.2015 08:30 3,1 C 4,7 C 74 % 1025,2 hPa 0,0 mm 0,3 km/h (0 Bft) S 180 -1,1 C 0,0 km/h (0 Bft)
13.11.2015 08:35 4,1 C 5,0 C 75 % 1025,2 hPa 0,0 mm 2,3 km/h (1 Bft) SW 225 0,1 C 12,9 km/h (3 Bft)
13.11.2015 08:40 6,5 C 6,7 C 71 % 1025,2 hPa 0,0 mm 7,8 km/h (2 Bft) S-SO 157 1,6 C 17,6 km/h (3 Bft)
13.11.2015 08:45 7,3 C 7,3 C 68 % 1025,2 hPa 0,0 mm 10,1 km/h (2 Bft) SW 225 1,8 C 17,6 km/h (3 Bft)
13.11.2015 08:47 7,3 C 7,3 C 68 % 1025,2 hPa 0,0 mm 10,1 km/h (2 Bft) SW 225 1,8 C 17,6 km/h (3 Bft)
13.11.2015 08:50 8,1 C 7,9 C 63 % 1025,2 hPa 0,0 mm 10,9 km/h (2 Bft) S-SW 202 1,5 C 12,9 km/h (3 Bft)
13.11.2015 08:55 8,5 C 8,3 C 60 % 1025,2 hPa 0,0 mm 10,6 km/h (2 Bft) S 180 1,2 C 9,8 km/h (2 Bft)
13.11.2015 09:00 9,0 C 8,9 C 59 % 1025,2 hPa 0,0 mm 9,1 km/h (2 Bft) SW 225 1,4 C 12,9 km/h (3 Bft)
13.11.2015 09:05 9,1 C 9,4 C 59 % 1025,2 hPa 0,0 mm 8,0 km/h (2 Bft) SW 225 1,5 C 7,5 km/h (2 Bft)
13.11.2015 09:10 9,3 C 9,8 C 59 % 1025,6 hPa 0,0 mm 6,7 km/h (2 Bft) SW 225 1,7 C 6,5 km/h (2 Bft)
13.11.2015 09:15 9,3 C 9,9 C 59 % 1025,6 hPa 0,0 mm 6,2 km/h (2 Bft) S 180 1,7 C 6,7 km/h (2 Bft)
13.11.2015 09:20 9,7 C 9,9 C 58 % 1025,6 hPa 0,0 mm 7,3 km/h (2 Bft) W 270 1,8 C 7,8 km/h (2 Bft)
13.11.2015 09:25 9,7 C 9,9 C 57 % 1025,6 hPa 0,0 mm 7,5 km/h (2 Bft) S 180 1,6 C 8,3 km/h (2 Bft)
13.11.2015 09:30 9,9 C 10,2 C 57 % 1025,9 hPa 0,0 mm 7,5 km/h (2 Bft) SW 225 1,8 C 4,7 km/h (1 Bft)
13.11.2015 09:35 9,8 C 10,4 C 57 % 1025,9 hPa 0,0 mm 6,5 km/h (2 Bft) S-SW 202 1,7 C 9,3 km/h (2 Bft)
13.11.2015 09:40 9,9 C 10,4 C 57 % 1025,9 hPa 0,0 mm 5,7 km/h (1 Bft) S-SW 202 1,8 C 6,7 km/h (2 Bft)
13.11.2015 09:45 10,0 C 10,4 C 57 % 1025,9 hPa 0,0 mm 6,0 km/h (2 Bft) W-SW 247 1,9 C 6,5 km/h (2 Bft)
13.11.2015 09:50 10,2 C 10,6 C 57 % 1025,6 hPa 0,0 mm 6,5 km/h (2 Bft) SW 225 2,1 C 7,0 km/h (2 Bft)
13.11.2015 09:55 10,1 C 10,6 C 57 % 1025,6 hPa 0,0 mm 6,0 km/h (2 Bft) SW 225 2,0 C 5,4 km/h (1 Bft)
13.11.2015 10:00 10,4 C 10,7 C 57 % 1025,6 hPa 0,0 mm 5,7 km/h (1 Bft) SW 225 2,3 C 7,5 km/h (2 Bft)
13.11.2015 10:05 10,5 C 11,0 C 56 % 1025,6 hPa 0,0 mm 5,7 km/h (1 Bft) S-SW 202 2,1 C 10,1 km/h (2 Bft)
13.11.2015 10:10 10,6 C 11,2 C 56 % 1025,4 hPa 0,0 mm 5,7 km/h (1 Bft) W 270 2,2 C 5,2 km/h (1 Bft)
13.11.2015 10:15 10,5 C 11,2 C 57 % 1025,4 hPa 0,0 mm 5,7 km/h (1 Bft) W-SW 247 2,3 C 4,1 km/h (1 Bft)
13.11.2015 10:20 10,8 C 11,2 C 56 % 1025,4 hPa 0,0 mm 5,7 km/h (1 Bft) W-SW 247 2,4 C 4,1 km/h (1 Bft)
13.11.2015 10:25 10,8 C 11,2 C 56 % 1025,4 hPa 0,0 mm 5,7 km/h (1 Bft) W-SW 247 2,4 C 4,1 km/h (1 Bft)
13.11.2015 10:30 11,0 C 11,2 C 56 % 1025,4 hPa 0,0 mm 0,0 km/h (0 Bft) W-SW 247 2,6 C 0,0 km/h (0 Bft)
13.11.2015 10:35 11,2 C 11,2 C 56 % 1025,4 hPa 0,0 mm 0,0 km/h (0 Bft) W-SW 247 2,8 C 0,0 km/h (0 Bft)
13.11.2015 10:40 11,4 C 11,3 C 56 % 1025,4 hPa 0,0 mm 0,0 km/h (0 Bft) W-SW 247 2,9 C 0,0 km/h (0 Bft)
13.11.2015 10:45 11,5 C 11,4 C 55 % 1025,4 hPa 0,0 mm 0,0 km/h (0 Bft) W-SW 247 2,8 C 0,0 km/h (0 Bft)
13.11.2015 10:50 11,6 C 11,5 C 55 % 1025,4 hPa 0,0 mm 0,0 km/h (0 Bft) W-SW 247 2,9 C 0,0 km/h (0 Bft)
13.11.2015 10:55 11,6 C 11,5 C 56 % 1025,4 hPa 0,0 mm 0,0 km/h (0 Bft) W-SW 247 3,1 C 0,0 km/h (0 Bft)
13.11.2015 11:00 11,8 C 11,6 C 55 % 1025,4 hPa 0,0 mm 0,0 km/h (0 Bft) W-SW 247 3,1 C 0,0 km/h (0 Bft)
13.11.2015 11:05 12,0 C 11,7 C 55 % 1025,4 hPa 0,0 mm 0,0 km/h (0 Bft) W-SW 247 3,2 C 0,0 km/h (0 Bft)
13.11.2015 11:10 11,8 C 11,6 C 55 % 1025,8 hPa 0,0 mm 0,0 km/h (0 Bft) W-SW 247 3,1 C 0,0 km/h (0 Bft)
13.11.2015 11:15 11,6 C 11,5 C 55 % 1025,8 hPa 0,0 mm 0,0 km/h (0 Bft) W-SW 247 2,9 C 0,0 km/h (0 Bft)
13.11.2015 11:20 11,6 C 11,5 C 55 % 1025,8 hPa 0,0 mm 0,0 km/h (0 Bft) W-SW 247 2,9 C 0,0 km/h (0 Bft)
13.11.2015 11:25 11,5 C 11,4 C 56 % 1025,8 hPa 0,0 mm 0,0 km/h (0 Bft) W-SW 247 3,0 C 0,0 km/h (0 Bft)
13.11.2015 11:30 11,1 C 11,2 C 56 % 1025,8 hPa 0,0 mm 0,0 km/h (0 Bft) W-SW 247 2,7 C 0,0 km/h (0 Bft)
13.11.2015 11:35 11,3 C 11,3 C 56 % 1025,8 hPa 0,0 mm 0,0 km/h (0 Bft) W-SW 247 2,8 C 0,0 km/h (0 Bft)
13.11.2015 11:40 11,6 C 11,5 C 56 % 1025,8 hPa 0,0 mm 0,0 km/h (0 Bft) W-SW 247 3,1 C 0,0 km/h (0 Bft)
13.11.2015 11:45 12,1 C 11,8 C 56 % 1025,8 hPa 0,0 mm 0,0 km/h (0 Bft) W-SW 247 3,6 C 0,0 km/h (0 Bft)
13.11.2015 11:50 12,6 C 12,1 C 56 % 1025,5 hPa 0,0 mm 0,0 km/h (0 Bft) W-SW 247 4,1 C 0,0 km/h (0 Bft)
13.11.2015 11:55 12,8 C 12,3 C 56 % 1025,5 hPa 0,0 mm 0,0 km/h (0 Bft) W-SW 247 4,2 C 0,0 km/h (0 Bft)
13.11.2015 12:00 13,1 C 12,5 C 54 % 1025,5 hPa 0,0 mm 0,0 km/h (0 Bft) W-SW 247 4,0 C 0,0 km/h (0 Bft)
13.11.2015 12:05 13,1 C 12,5 C 54 % 1025,5 hPa 0,0 mm 0,0 km/h (0 Bft) W-SW 247 4,0 C 0,0 km/h (0 Bft)
13.11.2015 12:10 13,4 C 12,8 C 54 % 1025,6 hPa 0,0 mm 0,0 km/h (0 Bft) W-SW 247 4,3 C 0,0 km/h (0 Bft)
13.11.2015 12:15 13,6 C 12,9 C 54 % 1025,6 hPa 0,0 mm 0,0 km/h (0 Bft) W-SW 247 4,5 C 0,0 km/h (0 Bft)
13.11.2015 12:20 13,8 C 12,9 C 54 % 1025,6 hPa 0,0 mm 0,0 km/h (0 Bft) W-SW 247 4,7 C 0,0 km/h (0 Bft)
13.11.2015 12:25 13,9 C 13,0 C 53 % 1025,6 hPa 0,0 mm 0,0 km/h (0 Bft) W-SW 247 4,5 C 0,0 km/h (0 Bft)
13.11.2015 12:30 14,0 C 13,1 C 53 % 1025,3 hPa 0,0 mm 0,0 km/h (0 Bft) W-SW 247 4,6 C 0,0 km/h (0 Bft)
13.11.2015 12:35 13,8 C 12,9 C 53 % 1025,3 hPa 0,0 mm 0,0 km/h (0 Bft) W-SW 247 4,4 C 0,0 km/h (0 Bft)
13.11.2015 12:40 13,8 C 12,9 C 52 % 1025,3 hPa 0,0 mm 0,0 km/h (0 Bft) W-SW 247 4,1 C 0,0 km/h (0 Bft)
13.11.2015 12:45 13,8 C 12,9 C 52 % 1025,3 hPa 0,0 mm 0,0 km/h (0 Bft) W-SW 247 4,1 C 0,0 km/h (0 Bft)
13.11.2015 12:50 13,7 C 12,9 C 51 % 1025,3 hPa 0,0 mm 0,0 km/h (0 Bft) W-SW 247 3,8 C 0,0 km/h (0 Bft)
13.11.2015 12:55 13,5 C 12,7 C 52 % 1025,3 hPa 0,0 mm 0,0 km/h (0 Bft) W-SW 247 3,8 C 0,0 km/h (0 Bft)
13.11.2015 13:00 13,4 C 12,7 C 52 % 1025,3 hPa 0,0 mm 0,0 km/h (0 Bft) W-SW 247 3,7 C 0,0 km/h (0 Bft)
13.11.2015 13:05 13,5 C 12,7 C 52 % 1025,3 hPa 0,0 mm 0,0 km/h (0 Bft) W-SW 247 3,8 C 0,0 km/h (0 Bft)
13.11.2015 13:10 13,7 C 12,9 C 52 % 1025,1 hPa 0,0 mm 0,0 km/h (0 Bft) W-SW 247 4,0 C 0,0 km/h (0 Bft)
13.11.2015 13:15 13,8 C 12,9 C 52 % 1025,1 hPa 0,0 mm 0,0 km/h (0 Bft) W-SW 247 4,1 C 0,0 km/h (0 Bft)
13.11.2015 13:20 13,9 C 13,0 C 52 % 1025,1 hPa 0,0 mm 0,0 km/h (0 Bft) W-SW 247 4,2 C 0,0 km/h (0 Bft)
13.11.2015 13:25 14,0 C 13,1 C 52 % 1025,1 hPa 0,0 mm 0,0 km/h (0 Bft) W-SW 247 4,3 C 0,0 km/h (0 Bft)
13.11.2015 13:30 13,9 C 13,0 C 52 % 1025,4 hPa 0,0 mm 0,0 km/h (0 Bft) W-SW 247 4,2 C 0,0 km/h (0 Bft)
13.11.2015 13:35 13,9 C 13,0 C 52 % 1025,4 hPa 0,0 mm 0,0 km/h (0 Bft) W-SW 247 4,2 C 0,0 km/h (0 Bft)
13.11.2015 13:40 13,7 C 12,9 C 52 % 1025,4 hPa 0,0 mm 0,0 km/h (0 Bft) W-SW 247 4,0 C 0,0 km/h (0 Bft)
13.11.2015 13:45 13,6 C 12,8 C 53 % 1025,4 hPa 0,0 mm 0,0 km/h (0 Bft) W-SW 247 4,2 C 0,0 km/h (0 Bft)
13.11.2015 13:50 13,5 C 12,7 C 53 % 1025,1 hPa 0,0 mm 0,0 km/h (0 Bft) W-SW 247 4,1 C 0,0 km/h (0 Bft)
13.11.2015 13:55 13,4 C 12,7 C 54 % 1025,1 hPa 0,0 mm 0,0 km/h (0 Bft) W-SW 247 4,3 C 0,0 km/h (0 Bft)
13.11.2015 14:00 13,4 C 12,7 C 54 % 1025,1 hPa 0,0 mm 0,0 km/h (0 Bft) W-SW 247 4,3 C 0,0 km/h (0 Bft)
13.11.2015 14:05 13,3 C 12,7 C 55 % 1025,1 hPa 0,0 mm 0,0 km/h (0 Bft) W-SW 247 4,5 C 0,0 km/h (0 Bft)
13.11.2015 14:10 13,3 C 12,7 C 55 % 1025,2 hPa 0,0 mm 0,0 km/h (0 Bft) W-SW 247 4,5 C 0,0 km/h (0 Bft)
13.11.2015 14:15 13,4 C 12,9 C 55 % 1025,2 hPa 0,0 mm 0,0 km/h (0 Bft) W-SW 247 4,5 C 0,0 km/h (0 Bft)
13.11.2015 14:20 13,5 C 12,8 C 56 % 1025,2 hPa 0,0 mm 0,0 km/h (0 Bft) W-SW 247 4,9 C 0,0 km/h (0 Bft)
13.11.2015 14:25 13,4 C 12,7 C 56 % 1025,2 hPa 0,0 mm 0,0 km/h (0 Bft) W-SW 247 4,8 C 0,0 km/h (0 Bft)
13.11.2015 14:30 13,1 C 12,5 C 56 % 1024,9 hPa 0,0 mm 0,0 km/h (0 Bft) W-SW 247 4,5 C 0,0 km/h (0 Bft)
13.11.2015 14:35 12,9 C 12,3 C 56 % 1024,9 hPa 0,0 mm 0,0 km/h (0 Bft) W-SW 247 4,3 C 0,0 km/h (0 Bft)
13.11.2015 14:40 12,8 C 12,3 C 57 % 1024,9 hPa 0,0 mm 0,0 km/h (0 Bft) W-SW 247 4,5 C 0,0 km/h (0 Bft)
13.11.2015 14:45 12,7 C 12,2 C 57 % 1024,9 hPa 0,0 mm 0,0 km/h (0 Bft) W-SW 247 4,4 C 0,0 km/h (0 Bft)
13.11.2015 14:48 12,7 C 12,2 C 57 % 1024,9 hPa 0,0 mm 0,0 km/h (0 Bft) W-SW 247 4,4 C 0,0 km/h (0 Bft)
13.11.2015 14:50 12,7 C 12,2 C 58 % 1024,9 hPa 0,0 mm 0,0 km/h (0 Bft) W-SW 247 4,7 C 0,0 km/h (0 Bft)
13.11.2015 14:55 12,7 C 12,2 C 58 % 1024,9 hPa 0,0 mm 0,0 km/h (0 Bft) W-SW 247 4,7 C 0,0 km/h (0 Bft)
13.11.2015 15:00 12,5 C 12,1 C 58 % 1024,9 hPa 0,0 mm 0,0 km/h (0 Bft) W-SW 247 4,5 C 0,0 km/h (0 Bft)
13.11.2015 15:05 12,4 C 12,0 C 58 % 1024,9 hPa 0,0 mm 0,0 km/h (0 Bft) W-SW 247 4,4 C 0,0 km/h (0 Bft)
13.11.2015 15:10 12,2 C 11,9 C 58 % 1024,9 hPa 0,0 mm 0,0 km/h (0 Bft) W-SW 247 4,2 C 0,0 km/h (0 Bft)
13.11.2015 15:15 12,0 C 11,7 C 58 % 1024,9 hPa 0,0 mm 0,0 km/h (0 Bft) W-SW 247 4,0 C 0,0 km/h (0 Bft)
13.11.2015 15:20 11,8 C 11,6 C 59 % 1024,9 hPa 0,0 mm 0,0 km/h (0 Bft) W-SW 247 4,1 C 0,0 km/h (0 Bft)
13.11.2015 15:25 11,6 C 11,5 C 59 % 1024,9 hPa 0,0 mm 0,0 km/h (0 Bft) W-SW 247 3,9 C 0,0 km/h (0 Bft)
13.11.2015 15:30 11,3 C 11,3 C 59 % 1024,9 hPa 0,0 mm 0,0 km/h (0 Bft) W-SW 247 3,6 C 0,0 km/h (0 Bft)
13.11.2015 15:35 11,3 C 11,3 C 59 % 1024,9 hPa 0,0 mm 0,0 km/h (0 Bft) W-SW 247 3,6 C 0,0 km/h (0 Bft)
13.11.2015 15:40 11,2 C 11,2 C 59 % 1024,9 hPa 0,0 mm 0,0 km/h (0 Bft) W-SW 247 3,5 C 0,0 km/h (0 Bft)
13.11.2015 15:45 10,9 C 11,2 C 60 % 1024,9 hPa 0,0 mm 0,0 km/h (0 Bft) W-SW 247 3,4 C 0,0 km/h (0 Bft)
13.11.2015 15:50 10,8 C 11,2 C 61 % 1024,9 hPa 0,0 mm 0,0 km/h (0 Bft) W-SW 247 3,6 C 0,0 km/h (0 Bft)
13.11.2015 15:55 10,7 C 11,2 C 62 % 1024,9 hPa 0,0 mm 0,0 km/h (0 Bft) W-SW 247 3,7 C 0,0 km/h (0 Bft)
13.11.2015 16:00 10,7 C 11,2 C 62 % 1024,9 hPa 0,0 mm 0,0 km/h (0 Bft) W-SW 247 3,7 C 0,0 km/h (0 Bft)
13.11.2015 16:05 10,6 C 11,2 C 62 % 1024,9 hPa 0,0 mm 0,0 km/h (0 Bft) W-SW 247 3,6 C 0,0 km/h (0 Bft)
13.11.2015 16:10 10,4 C 11,2 C 63 % 1025,1 hPa 0,0 mm 0,0 km/h (0 Bft) W-SW 247 3,7 C 0,0 km/h (0 Bft)
13.11.2015 16:15 10,3 C 11,2 C 63 % 1025,1 hPa 0,0 mm 0,0 km/h (0 Bft) W-SW 247 3,6 C 0,0 km/h (0 Bft)
13.11.2015 16:20 9,9 C 11,2 C 63 % 1025,1 hPa 0,0 mm 0,0 km/h (0 Bft) W-SW 247 3,2 C 0,0 km/h (0 Bft)
13.11.2015 16:25 9,9 C 11,2 C 65 % 1025,1 hPa 0,0 mm 0,0 km/h (0 Bft) W-SW 247 3,6 C 0,0 km/h (0 Bft)
13.11.2015 16:30 9,8 C 11,2 C 66 % 1025,0 hPa 0,0 mm 0,0 km/h (0 Bft) W-SW 247 3,8 C 0,0 km/h (0 Bft)
13.11.2015 16:35 9,6 C 11,2 C 66 % 1025,0 hPa 0,0 mm 0,0 km/h (0 Bft) W-SW 247 3,6 C 0,0 km/h (0 Bft)
13.11.2015 16:40 9,4 C 11,2 C 67 % 1025,0 hPa 0,0 mm 0,0 km/h (0 Bft) W-SW 247 3,6 C 0,0 km/h (0 Bft)
13.11.2015 16:45 9,5 C 11,2 C 67 % 1025,0 hPa 0,0 mm 0,0 km/h (0 Bft) W-SW 247 3,7 C 0,0 km/h (0 Bft)
13.11.2015 16:50 9,6 C 11,2 C 66 % 1024,9 hPa 0,0 mm 0,0 km/h (0 Bft) W-SW 247 3,6 C 0,0 km/h (0 Bft)
13.11.2015 16:55 9,4 C 11,2 C 66 % 1024,9 hPa 0,0 mm 0,0 km/h (0 Bft) W-SW 247 3,4 C 0,0 km/h (0 Bft)
13.11.2015 17:00 9,3 C 11,2 C 68 % 1024,9 hPa 0,0 mm 0,0 km/h (0 Bft) W-SW 247 3,7 C 0,0 km/h (0 Bft)
13.11.2015 17:05 9,3 C 11,2 C 68 % 1024,9 hPa 0,0 mm 0,0 km/h (0 Bft) W-SW 247 3,7 C 0,0 km/h (0 Bft)
13.11.2015 17:10 9,3 C 11,2 C 68 % 1025,3 hPa 0,0 mm 0,0 km/h (0 Bft) W-SW 247 3,7 C 0,0 km/h (0 Bft)
13.11.2015 17:15 8,8 C 11,2 C 68 % 1025,3 hPa 0,0 mm 0,0 km/h (0 Bft) W-SW 247 3,2 C 0,0 km/h (0 Bft)
13.11.2015 17:20 8,3 C 11,2 C 69 % 1025,3 hPa 0,0 mm 0,0 km/h (0 Bft) W-SW 247 3,0 C 0,0 km/h (0 Bft)
13.11.2015 17:25 8,8 C 11,2 C 70 % 1025,3 hPa 0,0 mm 0,0 km/h (0 Bft) W-SW 247 3,6 C 0,0 km/h (0 Bft)
13.11.2015 17:30 8,8 C 11,2 C 70 % 1025,3 hPa 0,0 mm 0,0 km/h (0 Bft) W-SW 247 3,6 C 0,0 km/h (0 Bft)
13.11.2015 17:35 8,7 C 11,2 C 70 % 1025,3 hPa 0,0 mm 0,0 km/h (0 Bft) W-SW 247 3,5 C 0,0 km/h (0 Bft)
13.11.2015 17:40 8,4 C 11,2 C 70 % 1025,3 hPa 0,0 mm 0,0 km/h (0 Bft) W-SW 247 3,3 C 0,0 km/h (0 Bft)
13.11.2015 17:45 8,4 C 11,2 C 70 % 1025,3 hPa 0,0 mm 0,0 km/h (0 Bft) W-SW 247 3,3 C 0,0 km/h (0 Bft)
13.11.2015 17:50 8,7 C 11,2 C 72 % 1025,8 hPa 0,0 mm 0,0 km/h (0 Bft) W-SW 247 3,9 C 0,0 km/h (0 Bft)
13.11.2015 17:55 8,8 C 11,2 C 72 % 1025,8 hPa 0,0 mm 0,0 km/h (0 Bft) W-SW 247 4,0 C 0,0 km/h (0 Bft)
13.11.2015 18:00 8,9 C 11,2 C 72 % 1025,8 hPa 0,0 mm 0,0 km/h (0 Bft) W-SW 247 4,1 C 0,0 km/h (0 Bft)
13.11.2015 18:05 8,7 C 11,2 C 72 % 1025,8 hPa 0,0 mm 0,0 km/h (0 Bft) W-SW 247 3,9 C 0,0 km/h (0 Bft)
13.11.2015 18:10 8,7 C 11,2 C 73 % 1025,9 hPa 0,0 mm 0,0 km/h (0 Bft) W-SW 247 4,1 C 0,0 km/h (0 Bft)
13.11.2015 18:15 8,5 C 11,2 C 73 % 1025,9 hPa 0,0 mm 0,0 km/h (0 Bft) W-SW 247 3,9 C 0,0 km/h (0 Bft)
13.11.2015 18:20 8,1 C 11,2 C 73 % 1025,9 hPa 0,0 mm 0,0 km/h (0 Bft) W-SW 247 3,6 C 0,0 km/h (0 Bft)
13.11.2015 18:25 8,1 C 11,2 C 73 % 1025,9 hPa 0,0 mm 0,0 km/h (0 Bft) W-SW 247 3,6 C 0,0 km/h (0 Bft)
13.11.2015 18:30 8,0 C 11,2 C 74 % 1026,1 hPa 0,0 mm 0,0 km/h (0 Bft) W-SW 247 3,7 C 0,0 km/h (0 Bft)
13.11.2015 18:35 8,0 C 11,2 C 74 % 1026,1 hPa 0,0 mm 0,0 km/h (0 Bft) W-SW 247 3,7 C 0,0 km/h (0 Bft)
13.11.2015 18:40 7,9 C 11,2 C 75 % 1026,1 hPa 0,0 mm 0,0 km/h (0 Bft) W-SW 247 3,7 C 0,0 km/h (0 Bft)
13.11.2015 18:45 8,0 C 11,2 C 75 % 1026,1 hPa 0,0 mm 0,0 km/h (0 Bft) W-SW 247 3,8 C 0,0 km/h (0 Bft)
13.11.2015 18:50 7,9 C 11,2 C 76 % 1025,9 hPa 0,0 mm 0,0 km/h (0 Bft) W-SW 247 3,9 C 0,0 km/h (0 Bft)
13.11.2015 18:55 7,9 C 11,2 C 76 % 1025,9 hPa 0,0 mm 0,0 km/h (0 Bft) W-SW 247 3,9 C 0,0 km/h (0 Bft)
13.11.2015 19:00 7,7 C 11,2 C 76 % 1025,9 hPa 0,0 mm 0,0 km/h (0 Bft) W-SW 247 3,7 C 0,0 km/h (0 Bft)
13.11.2015 19:05 7,6 C 11,2 C 76 % 1025,9 hPa 0,0 mm 0,0 km/h (0 Bft) W-SW 247 3,6 C 0,0 km/h (0 Bft)
13.11.2015 19:10 7,7 C 11,2 C 77 % 1025,9 hPa 0,0 mm 0,0 km/h (0 Bft) W-SW 247 3,9 C 0,0 km/h (0 Bft)
13.11.2015 19:15 7,7 C 11,2 C 77 % 1025,9 hPa 0,0 mm 0,0 km/h (0 Bft) W-SW 247 3,9 C 0,0 km/h (0 Bft)
13.11.2015 19:20 7,6 C 11,2 C 78 % 1025,9 hPa 0,0 mm 0,0 km/h (0 Bft) W-SW 247 4,0 C 0,0 km/h (0 Bft)
13.11.2015 19:25 7,7 C 11,2 C 78 % 1025,9 hPa 0,0 mm 0,0 km/h (0 Bft) W-SW 247 4,1 C 0,0 km/h (0 Bft)
13.11.2015 19:30 7,7 C 11,2 C 78 % 1025,8 hPa 0,0 mm 0,0 km/h (0 Bft) W-SW 247 4,1 C 0,0 km/h (0 Bft)
13.11.2015 19:35 7,7 C 11,2 C 78 % 1025,8 hPa 0,0 mm 0,0 km/h (0 Bft) W-SW 247 4,1 C 0,0 km/h (0 Bft)
13.11.2015 19:40 7,7 C 11,2 C 79 % 1025,8 hPa 0,0 mm 0,0 km/h (0 Bft) W-SW 247 4,3 C 0,0 km/h (0 Bft)
13.11.2015 19:45 7,7 C 11,2 C 78 % 1025,8 hPa 0,0 mm 0,0 km/h (0 Bft) W-SW 247 4,1 C 0,0 km/h (0 Bft)
13.11.2015 19:50 7,7 C 11,2 C 79 % 1026,2 hPa 0,0 mm 0,0 km/h (0 Bft) W-SW 247 4,3 C 0,0 km/h (0 Bft)
13.11.2015 19:55 7,7 C 11,2 C 79 % 1026,2 hPa 0,0 mm 0,0 km/h (0 Bft) W-SW 247 4,3 C 0,0 km/h (0 Bft)
13.11.2015 20:00 7,6 C 11,2 C 79 % 1026,2 hPa 0,0 mm 0,0 km/h (0 Bft) W-SW 247 4,2 C 0,0 km/h (0 Bft)
13.11.2015 20:05 7,4 C 11,2 C 79 % 1026,2 hPa 0,0 mm 0,0 km/h (0 Bft) W-SW 247 4,0 C 0,0 km/h (0 Bft)
13.11.2015 20:10 7,4 C 11,2 C 79 % 1025,8 hPa 0,0 mm 0,0 km/h (0 Bft) W-SW 247 4,0 C 0,0 km/h (0 Bft)
13.11.2015 20:15 7,5 C 11,2 C 79 % 1025,8 hPa 0,0 mm 0,0 km/h (0 Bft) W-SW 247 4,1 C 0,0 km/h (0 Bft)
13.11.2015 20:20 7,5 C 11,2 C 79 % 1025,8 hPa 0,0 mm 0,0 km/h (0 Bft) W-SW 247 4,1 C 0,0 km/h (0 Bft)
13.11.2015 20:25 7,3 C 11,2 C 79 % 1025,8 hPa 0,0 mm 0,0 km/h (0 Bft) W-SW 247 3,9 C 0,0 km/h (0 Bft)
13.11.2015 20:30 7,5 C 11,2 C 80 % 1025,6 hPa 0,0 mm 0,0 km/h (0 Bft) W-SW 247 4,3 C 0,0 km/h (0 Bft)
13.11.2015 20:35 7,3 C 11,2 C 79 % 1025,6 hPa 0,0 mm 0,0 km/h (0 Bft) W-SW 247 3,9 C 0,0 km/h (0 Bft)
13.11.2015 20:40 7,3 C 11,2 C 80 % 1025,6 hPa 0,0 mm 0,0 km/h (0 Bft) W-SW 247 4,1 C 0,0 km/h (0 Bft)
13.11.2015 20:45 7,5 C 11,2 C 80 % 1025,6 hPa 0,0 mm 0,0 km/h (0 Bft) W-SW 247 4,3 C 0,0 km/h (0 Bft)
13.11.2015 20:48 7,4 C 4,9 C 80 % 1025,6 hPa 0,0 mm 0,0 km/h (0 Bft) W-SW 247 4,2 C 0,0 km/h (0 Bft)
13.11.2015 20:49 7,4 C 4,9 C 80 % 1025,6 hPa 0,0 mm 0,0 km/h (0 Bft) W-SW 247 4,2 C 0,0 km/h (0 Bft)
13.11.2015 20:50 7,4 C 4,9 C 80 % 1025,6 hPa 0,0 mm 0,0 km/h (0 Bft) W-SW 247 4,2 C 0,0 km/h (0 Bft)
13.11.2015 20:55 7,4 C 4,9 C 80 % 1025,6 hPa 0,0 mm 0,0 km/h (0 Bft) W-SW 247 4,2 C 0,0 km/h (0 Bft)
13.11.2015 21:00 7,2 C 4,8 C 80 % 1025,6 hPa 0,0 mm 0,0 km/h (0 Bft) W-SW 247 4,0 C 0,0 km/h (0 Bft)
13.11.2015 21:05 7,4 C 4,9 C 80 % 1025,6 hPa 0,0 mm 0,0 km/h (0 Bft) W-SW 247 4,2 C 0,0 km/h (0 Bft)
13.11.2015 21:10 7,7 C 5,1 C 80 % 1025,8 hPa 0,0 mm 0,0 km/h (0 Bft) W-SW 247 4,5 C 0,0 km/h (0 Bft)
13.11.2015 21:15 7,9 C 5,3 C 80 % 1025,8 hPa 0,0 mm 0,0 km/h (0 Bft) W-SW 247 4,7 C 0,0 km/h (0 Bft)
13.11.2015 21:20 8,1 C 5,4 C 80 % 1025,8 hPa 0,0 mm 0,0 km/h (0 Bft) W-SW 247 4,9 C 0,0 km/h (0 Bft)
13.11.2015 21:25 8,2 C 5,5 C 80 % 1025,8 hPa 0,0 mm 0,0 km/h (0 Bft) W-SW 247 5,0 C 0,0 km/h (0 Bft)
13.11.2015 21:30 8,3 C 5,5 C 79 % 1025,6 hPa 0,0 mm 0,0 km/h (0 Bft) W-SW 247 4,9 C 0,0 km/h (0 Bft)
13.11.2015 21:35 8,2 C 5,5 C 79 % 1025,6 hPa 0,0 mm 0,0 km/h (0 Bft) W-SW 247 4,8 C 0,0 km/h (0 Bft)
13.11.2015 21:40 8,4 C 5,6 C 79 % 1025,6 hPa 0,0 mm 0,0 km/h (0 Bft) W-SW 247 5,0 C 0,0 km/h (0 Bft)
13.11.2015 21:45 8,4 C 5,6 C 78 % 1025,6 hPa 0,0 mm 0,0 km/h (0 Bft) W-SW 247 4,8 C 0,0 km/h (0 Bft)
13.11.2015 21:50 8,4 C 5,6 C 78 % 1025,7 hPa 0,0 mm 0,0 km/h (0 Bft) W-SW 247 4,8 C 0,0 km/h (0 Bft)
13.11.2015 21:55 8,5 C 5,7 C 78 % 1025,7 hPa 0,0 mm 0,0 km/h (0 Bft) W-SW 247 4,9 C 0,0 km/h (0 Bft)
13.11.2015 22:00 8,6 C 5,7 C 78 % 1025,7 hPa 0,0 mm 0,0 km/h (0 Bft) W-SW 247 5,0 C 0,0 km/h (0 Bft)
13.11.2015 22:05 8,7 C 5,8 C 78 % 1025,7 hPa 0,0 mm 0,0 km/h (0 Bft) W-SW 247 5,1 C 0,0 km/h (0 Bft)
13.11.2015 22:10 9,0 C 6,0 C 76 % 1025,7 hPa 0,0 mm 0,0 km/h (0 Bft) W-SW 247 5,0 C 0,0 km/h (0 Bft)
13.11.2015 22:15 9,0 C 6,0 C 76 % 1025,7 hPa 0,0 mm 0,0 km/h (0 Bft) W-SW 247 5,0 C 0,0 km/h (0 Bft)
13.11.2015 22:20 8,9 C 5,9 C 76 % 1025,7 hPa 0,0 mm 0,0 km/h (0 Bft) W-SW 247 4,9 C 0,0 km/h (0 Bft)
13.11.2015 22:25 8,8 C 5,9 C 76 % 1025,7 hPa 0,0 mm 0,0 km/h (0 Bft) W-SW 247 4,8 C 0,0 km/h (0 Bft)
13.11.2015 22:30 8,7 C 5,8 C 77 % 1025,6 hPa 0,0 mm 0,0 km/h (0 Bft) W-SW 247 4,9 C 0,0 km/h (0 Bft)
13.11.2015 22:35 8,7 C 5,8 C 77 % 1025,6 hPa 0,0 mm 0,0 km/h (0 Bft) W-SW 247 4,9 C 0,0 km/h (0 Bft)
13.11.2015 22:40 8,6 C 5,7 C 77 % 1025,6 hPa 0,0 mm 0,0 km/h (0 Bft) W-SW 247 4,8 C 0,0 km/h (0 Bft)
13.11.2015 22:45 8,3 C 5,5 C 77 % 1025,6 hPa 0,0 mm 0,0 km/h (0 Bft) W-SW 247 4,5 C 0,0 km/h (0 Bft)
13.11.2015 22:50 8,2 C 5,5 C 78 % 1025,8 hPa 0,0 mm 0,0 km/h (0 Bft) W-SW 247 4,6 C 0,0 km/h (0 Bft)
13.11.2015 22:55 8,3 C 5,5 C 78 % 1025,8 hPa 0,0 mm 0,0 km/h (0 Bft) W-SW 247 4,7 C 0,0 km/h (0 Bft)
13.11.2015 23:00 8,3 C 5,5 C 78 % 1025,8 hPa 0,0 mm 0,0 km/h (0 Bft) W-SW 247 4,7 C 0,0 km/h (0 Bft)
13.11.2015 23:05 8,4 C 5,6 C 78 % 1025,8 hPa 0,0 mm 0,0 km/h (0 Bft) W-SW 247 4,8 C 0,0 km/h (0 Bft)
13.11.2015 23:10 8,6 C 5,7 C 78 % 1025,9 hPa 0,0 mm 0,0 km/h (0 Bft) W-SW 247 5,0 C 0,0 km/h (0 Bft)
13.11.2015 23:15 8,7 C 5,8 C 78 % 1025,9 hPa 0,0 mm 0,0 km/h (0 Bft) W-SW 247 5,1 C 0,0 km/h (0 Bft)
13.11.2015 23:20 8,8 C 5,9 C 78 % 1025,9 hPa 0,0 mm 0,0 km/h (0 Bft) W-SW 247 5,2 C 0,0 km/h (0 Bft)
13.11.2015 23:25 8,9 C 5,9 C 78 % 1025,9 hPa 0,0 mm 0,0 km/h (0 Bft) W-SW 247 5,3 C 0,0 km/h (0 Bft)
13.11.2015 23:30 9,1 C 6,1 C 78 % 1026,0 hPa 0,0 mm 0,0 km/h (0 Bft) W-SW 247 5,5 C 0,0 km/h (0 Bft)
13.11.2015 23:35 9,1 C 6,1 C 78 % 1026,0 hPa 0,0 mm 0,0 km/h (0 Bft) W-SW 247 5,5 C 0,0 km/h (0 Bft)
13.11.2015 23:40 9,0 C 6,0 C 79 % 1026,0 hPa 0,0 mm 0,0 km/h (0 Bft) W-SW 247 5,6 C 0,0 km/h (0 Bft)
13.11.2015 23:45 9,1 C 6,1 C 79 % 1026,0 hPa 0,0 mm 0,0 km/h (0 Bft) W-SW 247 5,7 C 0,0 km/h (0 Bft)
13.11.2015 23:50 9,1 C 6,1 C 79 % 1025,9 hPa 0,0 mm 0,0 km/h (0 Bft) W-SW 247 5,7 C 0,0 km/h (0 Bft)
13.11.2015 23:55 9,0 C 6,0 C 79 % 1025,9 hPa 0,0 mm 0,0 km/h (0 Bft) W-SW 247 5,6 C 0,0 km/h (0 Bft)
_ Min-Zeit 00:15 00:15 12:50 03:45 - 23:55 - - 03:20 23:55
Minimum _ -0,1 C -0,3 C 51 % 1023,2 hPa - 0,0 km/h (0 Bft) - - -1,8 C 0,0 km/h (0 Bft)
_ Max-Zeit 13:25 13:25 04:05 20:05 23:55 08:50 - - 23:50 08:47
Maximum _ 14,0 C 13,1 C 92 % 1026,2 hPa 0,0 mm 10,9 km/h
S-SW (2 Bft)
- - 5,7 C 17,6 km/h
SW (3 Bft)
Durchschnitt _ 7,0 C 7,0 C 73 % 1024,9 hPa #0,0 mm 0,6 km/h (0 Bft) SW - 2,2 C 0,8 km/h (0 Bft)